GFSMW_con_mucape_132.txt.gz
CAPE
33 25 32 352 419 459 389 574 882 735 890 1086 619 783 657 527 498 676 778 1172 1293 1322 1011 825 602 423 386 264 461 494 718 768 788 782 542 286 300 374 427 497 504 262 293
17 33 259 366 332 344 404 467 643 839 804 1283 676 797 584 232 707 579 1271 1030 995 1383 1081 664 926 531 200 308 394 309 321 329 494 418 391 464 492 400 400 250 214 186 190
50 27 203 280 319 324 406 396 573 653 745 1154 921 955 817 766 611 745 1051 1188 1049 1443 966 908 590 53 536 749 599 173 241 388 178 338 446 281 236 171 259 182 13 60 41
68 6 115 156 167 230 367 502 638 680 638 1036 1067 789 709 653 592 602 1017 875 1064 1173 1150 907 955 179 253 694 865 37 589 572 195 77 374 271 155 193 335 48 326 132 86
79 55 74 86 126 184 529 548 689 645 772 949 887 888 800 560 458 577 841 694 1033 991 1320 1124 1193 314 45 320 794 759 661 737 656 52 44 34 477 374 421 303 217 273 205
6 68 100 102 103 116 466 572 613 620 897 922 985 829 480 541 668 393 685 763 736 964 921 1207 1262 711 762 1027 1486 1400 1361 1402 1024 588 640 608 617 613 542 342 400 488 176
35 69 116 119 105 119 255 590 528 517 865 1010 1030 952 760 682 821 587 730 916 657 863 831 916 1111 1212 1288 1159 1389 1338 1345 1442 1099 1512 1260 1133 1178 1011 637 525 563 465 151
141 96 71 96 143 133 158 537 522 535 560 906 805 778 1005 937 663 677 812 798 888 629 619 633 1278 1395 1413 1309 1138 1405 1298 1014 1039 1086 1104 1206 1170 691 678 640 396 297 241
305 137 121 130 146 119 168 378 448 409 491 583 606 567 567 1201 803 540 492 482 553 923 893 673 1153 1017 1473 1216 1054 1257 1511 1322 1036 844 1064 1295 1131 1078 724 561 463 536 323
267 301 156 178 164 153 199 318 557 448 541 526 538 588 544 717 953 600 528 669 1145 1130 603 785 1188 1178 1228 1290 1107 1041 1190 1120 1073 902 920 975 865 842 825 632 471 664 302
338 443 325 194 158 152 196 393 662 619 612 554 520 661 669 628 750 764 1008 1127 1009 1207 761 991 1104 1183 1159 1143 1296 1431 1315 1252 1222 1021 690 595 611 944 776 771 465 636 526
592 428 376 238 155 238 216 513 606 711 599 585 643 854 936 704 629 744 850 1174 1123 916 1084 1029 995 864 1039 1137 1226 1121 1295 1045 916 881 739 820 659 451 361 574 545 556 728
335 395 398 213 207 426 422 658 696 742 627 567 591 705 924 889 655 686 772 693 640 712 781 903 1118 1153 1229 1162 1215 1084 1103 1001 886 868 816 664 753 713 493 574 448 278 535
630 617 381 292 292 260 497 533 824 849 918 734 590 591 652 747 666 521 747 690 618 591 990 1129 1151 1127 1001 958 918 895 921 986 877 841 757 748 689 412 386 574 539 378 440
520 366 447 506 538 410 224 327 390 673 597 649 660 639 543 476 526 585 722 834 742 659 952 918 1055 1069 718 690 798 719 745 724 674 574 464 611 599 634 567 377 364 484 426
384 245 269 307 294 312 306 310 250 355 412 445 468 442 417 658 718 773 848 825 782 788 659 705 906 994 1055 1021 707 650 838 765 485 403 348 317 420 323 271 126 52 72 173
302 122 306 293 227 206 192 254 187 105 175 83 153 65 155 224 515 776 748 821 807 816 734 738 924 757 982 807 468 387 339 280 141 105 110 145 163 108 82 50 26 26 41
142 22 0 10 21 19 76 141 136 105 111 40 37 1 7 34 293 608 607 759 765 630 849 735 453 390 367 210 161 99 68 56 61 46 51 24 27 7 21 51 63 47 34
145 30 1 0 0 0 49 48 57 118 23 55 48 31 40 200 325 435 573 603 466 370 275 297 262 211 130 110 118 123 133 108 78 42 29 12 18 17 14 4 14 25 34
134 67 23 1 31 56 1 0 82 91 47 8 15 3 5 339 402 464 463 413 408 203 101 131 165 113 123 134 102 56 37 44 34 56 30 13 16 21 35 27 24 22 5
158 70 5 4 0 67 55 1 7 59 94 124 54 17 8 86 147 249 207 286 257 208 119 85 65 55 32 7 14 26 36 60 80 47 8 9 0 0 0 0 2 10 30
129 119 46 21 5 69 110 0 9 0 1 29 110 94 68 87 66 31 75 102 201 110 51 35 67 74 59 37 58 51 23 34 17 3 14 25 5 0 0 2 9 9 14
143 131 45 21 6 57 93 13 19 36 19 6 6 2 3 2 34 40 38 8 22 21 6 5 20 18 37 61 75 5 0 3 2 1 0 2 10 17 17 10 23 23 24
223 152 219 481 131 59 105 46 29 64 52 15 64 34 14 2 22 19 3 11 40 69 37 24 2 5 5 6 0 0 0 1 0 1 5 5 8 8 4 4 7 1 0
189 235 338 151 164 132 136 107 83 109 54 0 38 59 6 50 80 83 38 53 35 71 27 6 2 0 0 0 0 0 9 18 11 1 0 0 0 0 0 0 0 0 0
148 167 172 308 204 212 175 151 135 126 78 22 24 55 54 73 30 67 68 68 70 64 51 14 9 15 4 0 1 1 0 0 0 0 0 0 0 0 0 0 0 0 0

GFSMW_con_mucape_135.txt.gz
CAPE
32 111 159 130 140 330 348 326 206 450 413 466 551 625 608 447 661 663 766 787 961 1328 974 743 747 443 281 276 346 451 674 694 754 339 257 245 228 160 187 242 368 329 222
66 110 154 230 269 374 421 320 318 740 427 708 699 680 658 471 544 488 626 707 1006 1248 1192 471 438 357 178 211 300 351 364 393 432 396 309 274 193 225 252 270 206 141 45
91 124 111 307 361 359 394 353 523 972 555 821 604 672 580 517 383 580 528 1056 990 857 1213 671 712 438 177 313 432 241 215 106 289 165 228 156 106 84 68 91 84 117 20
93 86 90 306 379 363 384 381 630 781 658 908 531 660 556 624 359 615 607 911 969 969 1275 703 782 421 281 741 414 118 358 501 106 101 66 109 82 31 149 82 164 221 116
72 70 158 255 347 348 335 284 371 453 514 847 787 667 629 663 600 503 546 617 865 1029 1170 907 781 385 94 515 710 544 425 567 445 53 70 7 104 147 219 203 115 239 259
73 80 138 210 263 320 273 294 380 423 449 454 868 774 526 480 481 430 467 787 705 776 976 1067 759 696 93 748 1029 988 834 941 704 385 382 360 309 474 492 276 188 292 310
99 110 106 139 190 275 330 371 455 450 478 452 715 711 703 584 481 412 254 551 520 794 810 1003 1096 762 677 971 1403 1168 1206 1298 1080 1074 873 864 701 791 558 300 298 200 112
250 91 147 151 168 192 289 380 441 474 484 537 696 681 710 555 406 540 582 400 542 619 582 794 905 989 1033 1180 1124 1412 1184 1135 1124 985 1010 956 966 924 533 381 278 181 91
432 286 155 91 145 163 173 408 398 474 448 585 560 709 697 534 501 565 530 518 571 680 605 564 559 963 1064 1214 1114 956 1137 1173 1147 976 776 1048 1080 780 705 389 257 267 205
648 404 194 125 129 130 145 201 388 392 383 444 592 638 682 750 694 657 501 519 544 512 591 814 703 735 1011 1177 1149 942 1097 1294 972 1006 709 812 837 645 659 535 354 312 309
767 491 469 332 177 174 156 217 347 360 331 356 418 522 599 507 786 824 514 352 385 691 943 912 623 825 915 1050 1143 1152 1089 978 982 949 911 778 606 514 724 620 525 291 327
512 453 475 433 380 202 123 178 258 368 321 188 290 390 410 423 409 683 589 488 680 731 827 852 632 929 908 971 1020 1071 1218 1319 1153 983 874 731 512 667 517 296 341 314 341
729 672 570 446 373 379 236 181 318 459 416 391 371 364 417 436 349 397 550 562 884 905 980 831 888 925 790 781 961 1103 1128 1071 1020 953 881 835 752 633 646 547 448 378 294
349 342 452 334 232 403 404 432 637 812 576 485 422 418 457 506 399 317 424 580 806 933 709 667 674 786 923 1009 1102 1077 990 951 965 938 845 816 725 729 598 330 386 343 249
540 564 491 412 373 333 347 600 692 822 762 489 367 392 307 467 529 493 434 479 621 559 508 596 658 733 965 929 880 819 906 866 807 885 669 522 598 562 638 604 402 363 414
404 415 328 335 351 472 455 367 318 426 602 505 466 427 312 370 417 456 469 429 441 540 459 461 578 692 724 789 607 736 636 669 659 656 491 493 438 429 353 309 173 75 130
522 331 228 204 137 316 233 257 339 301 280 493 602 268 175 231 334 373 377 352 331 421 557 491 486 649 782 847 924 776 604 689 685 458 271 188 179 194 131 82 58 31 16
186 258 152 19 0 0 64 71 60 122 173 260 269 321 211 126 212 124 190 332 295 365 507 412 425 465 617 684 906 578 355 357 195 104 61 64 70 78 56 41 31 36 23
74 72 53 17 0 12 55 15 112 91 49 42 97 221 261 226 153 73 46 133 291 274 283 339 368 456 677 499 366 246 167 126 95 92 104 91 69 49 27 30 23 44 44
138 125 53 31 2 117 2 0 0 2 92 31 25 2 82 81 21 100 119 157 239 281 329 277 303 364 197 144 131 116 118 172 169 102 62 62 55 73 32 39 29 35 49
214 158 55 29 30 1 131 6 2 4 1 0 13 38 36 50 20 92 83 113 212 271 235 187 168 101 84 108 98 65 39 58 87 98 93 67 77 18 30 11 2 7 23
325 230 54 21 26 55 188 134 2 0 8 0 13 52 30 57 6 65 92 142 172 239 188 136 98 84 121 91 59 15 31 74 75 38 13 4 5 0 0 0 0 2 0
240 165 139 75 99 104 219 372 20 3 10 13 0 40 44 32 0 26 50 135 145 138 130 143 122 153 118 41 33 27 20 36 13 54 19 15 13 9 18 24 38 39 40
327 303 271 395 274 454 176 103 56 1 0 0 9 3 2 2 3 19 22 26 14 45 6 13 25 59 47 69 23 8 37 19 56 20 10 5 2 11 4 0 1 0 2
170 318 353 329 416 266 288 155 107 3 34 4 9 5 0 24 1 7 7 23 1 19 11 65 52 83 76 10 4 0 18 23 34 0 0 0 0 0 0 0 0 0 0
166 367 473 339 360 465 211 141 212 136 30 4 1 18 30 34 6 39 53 73 54 44 44 37 19 7 3 3 4 23 53 28 10 1 0 0 0 0 0 0 0 0 0

GFSMW_con_mucape_138.txt.gz
CAPE
30 0 44 33 64 93 77 180 153 330 305 189 62 278 330 345 426 490 782 577 823 899 843 671 623 526 344 207 241 432 620 552 566 343 251 165 196 189 236 186 250 281 139
62 39 25 20 61 109 84 124 120 163 226 49 161 451 486 539 402 532 579 614 640 894 973 680 456 369 196 84 149 287 304 407 411 472 449 330 294 217 231 239 227 208 105
75 72 60 60 96 118 163 121 183 153 126 220 326 523 502 499 320 458 386 508 661 856 990 715 311 427 290 25 239 161 224 161 195 256 244 226 199 89 76 95 115 197 218
83 64 77 99 112 123 221 201 260 164 272 299 469 548 458 492 358 355 272 397 815 793 1008 746 553 520 123 293 484 129 187 112 54 51 136 76 97 87 325 117 130 183 238
128 80 109 143 195 220 218 259 296 252 335 603 461 483 439 374 343 192 395 424 688 783 888 968 537 473 123 225 610 51 308 397 324 130 7 38 8 132 192 285 222 265 179
169 151 123 120 219 296 248 255 290 294 399 733 564 438 394 348 311 423 389 393 344 641 778 904 642 479 243 66 264 536 583 527 513 297 179 311 349 458 482 343 183 195 309
180 157 144 121 253 317 277 278 300 321 395 579 587 538 391 334 323 379 364 310 466 650 465 858 729 596 486 290 621 875 845 803 893 900 923 802 624 581 642 346 228 273 173
214 176 113 135 188 278 281 293 297 268 314 357 376 609 673 483 341 298 315 254 186 356 389 747 663 658 578 605 695 877 905 970 1061 1000 912 909 800 823 823 512 341 224 104
279 244 134 113 142 151 216 236 266 261 286 312 317 306 501 555 487 386 276 366 278 271 316 358 547 696 673 795 835 807 965 1016 962 903 903 715 896 1020 735 608 405 336 319
454 348 292 251 177 136 141 320 299 257 271 301 367 352 396 514 471 458 286 433 453 305 491 421 432 484 729 799 880 980 936 943 996 974 852 792 696 794 695 611 515 418 366
761 705 548 405 300 160 166 219 106 267 264 261 371 377 367 430 529 401 323 408 340 452 460 435 442 581 702 802 785 853 880 873 930 841 802 769 709 629 533 516 585 500 385
677 813 522 491 427 335 228 239 127 196 253 202 205 369 403 390 413 513 522 485 476 317 520 618 713 602 719 740 792 1036 1205 944 1075 1136 1031 928 780 735 635 580 545 425 311
554 482 471 430 414 400 363 243 179 214 327 257 264 249 249 295 361 364 412 540 555 443 496 560 547 652 712 648 723 843 893 993 1072 1029 863 981 691 723 615 604 593 510 386
686 658 571 473 404 351 310 282 241 186 394 326 278 231 332 284 287 312 277 329 486 550 555 762 670 726 741 751 884 911 943 951 968 981 927 820 632 615 703 586 434 388 338
468 424 368 344 246 224 292 465 352 454 462 453 398 293 298 276 339 326 306 263 366 513 556 730 797 756 804 725 936 934 940 872 679 808 659 414 527 567 544 508 573 461 388
366 394 361 331 330 408 452 377 346 562 717 507 458 407 342 316 397 416 347 315 296 365 431 677 606 606 622 660 830 831 685 651 588 578 547 480 475 426 390 312 208 100 63
359 294 258 226 118 61 70 101 111 138 276 387 498 599 527 328 247 283 238 280 318 330 357 470 571 449 459 586 707 677 571 580 546 642 661 414 247 148 122 79 47 30 17
134 174 256 253 169 41 33 2 0 12 14 30 189 620 622 363 228 259 165 215 248 292 380 351 375 390 384 515 577 539 591 627 496 489 406 169 50 33 54 38 32 13 15
70 37 63 85 61 30 12 8 0 0 0 0 1 26 115 164 122 208 172 162 251 252 299 290 216 337 335 368 399 538 651 529 265 152 99 76 59 52 33 25 44 60 37
55 53 1 1 27 17 92 9 3 2 0 0 0 0 20 21 40 36 78 84 69 87 148 234 255 286 279 235 341 461 238 146 113 99 103 95 101 73 41 15 65 53 56
30 113 128 76 51 3 184 58 33 0 0 0 0 0 0 2 10 132 119 98 106 79 44 205 196 174 197 181 150 93 77 77 156 27 17 25 32 31 23 68 27 2 4
29 31 79 6 36 17 102 171 13 0 0 0 0 15 1 10 8 6 16 65 48 48 86 163 145 139 135 99 81 85 66 50 55 56 18 13 34 6 1 0 0 0 0
3 28 77 44 134 208 327 272 1 0 0 0 0 1 58 50 28 20 94 133 12 43 48 143 87 95 127 135 115 95 101 103 51 4 15 10 12 1 12 12 24 5 1
71 35 73 48 157 456 454 164 0 0 7 3 8 1 0 2 82 33 2 39 21 39 131 53 97 132 140 93 102 109 50 20 37 4 52 30 27 13 9 1 0 0 0
24 23 56 95 371 636 596 105 3 0 12 25 16 22 1 1 7 7 12 26 36 61 62 20 60 58 68 23 10 0 3 2 12 28 41 23 13 1 0 0 0 0 0
40 227 119 222 293 649 652 406 0 2 8 29 51 25 36 41 29 23 3 8 22 25 23 5 1 2 14 13 7 30 48 44 24 23 7 6 1 0 0 0 0 0 0

GFSMW_con_mucape_141.txt.gz
CAPE
99 157 217 263 255 302 377 604 822 1102 999 768 721 1017 995 1107 949 1286 1384 1477 1840 1989 2162 1622 1538 1369 1384 1174 1164 1336 641 1070 1225 1084 999 862 727 706 688 675 620 530 347
67 50 105 211 212 306 321 551 880 1167 895 866 686 675 1048 1056 1107 1310 1468 1376 1511 1910 2038 1997 1448 1081 670 796 1218 1495 735 602 1157 1097 1279 967 926 901 636 511 506 543 336
140 104 138 222 210 254 366 578 825 967 1020 877 637 1096 1232 1166 1187 1369 1327 1419 1493 1798 2276 1980 1421 910 527 561 1067 939 644 500 644 896 894 608 431 543 432 417 244 327 377
184 101 295 286 223 262 414 543 651 911 1020 996 824 966 1107 1146 1191 1286 1350 1357 1541 1774 1885 2138 1632 1056 603 1055 1106 1078 785 820 638 568 276 506 491 473 314 758 455 749 851
220 137 259 335 336 331 443 606 596 826 1128 1081 1224 1115 1299 1227 1355 1151 1404 1502 1773 1966 1720 2094 1900 1280 869 927 1712 408 1314 964 1060 179 344 319 423 627 991 486 593 811 974
274 161 143 287 419 410 490 652 800 966 1167 1180 1261 1431 1474 1540 1273 1334 1160 1262 1411 1679 2043 2101 2158 1725 1325 644 970 1297 1616 1314 1412 572 378 949 1090 1093 1194 1098 854 803 824
265 219 194 109 415 410 536 688 963 1109 1106 1081 1161 1467 1485 1604 1605 1917 1330 1384 1331 1271 1572 2155 2439 1928 1738 1198 1008 2117 2320 1790 1882 2116 1482 1309 1416 1375 1362 1274 730 831 549
269 283 297 345 618 634 691 746 913 1160 1115 1172 1317 1644 1581 1381 1251 1364 1242 1288 1275 1322 1652 1921 2191 2280 2105 1792 1822 2084 2284 2148 2596 2209 2246 1621 1670 1571 1717 1508 1279 660 473
303 369 329 431 597 518 775 919 983 1102 1104 1077 1345 1551 1627 1540 1292 1463 1420 1080 1281 1066 1637 1592 1914 2022 2146 2121 2056 1924 2545 2197 2226 1994 2084 1931 1514 1774 2216 1731 1471 1112 699
439 437 437 470 617 689 784 603 759 1063 1105 1027 1106 1176 1243 1406 1493 1561 1520 1296 1244 1543 1323 1481 1489 1720 1764 1976 2099 1702 1860 2201 2113 1783 2062 2103 1602 1618 1783 1788 2065 1309 1226
815 566 605 639 700 759 720 831 740 933 1052 1085 1124 1131 1123 1117 1199 1299 1431 1460 1443 1604 1586 1625 1628 1614 1742 1888 2187 2062 1713 2073 2188 2184 2061 2040 2068 1540 1395 2099 2081 2396 2049
925 830 711 740 705 816 808 695 824 781 911 1081 1384 1177 1195 1247 1152 1366 1441 1530 1479 1440 1580 1696 1732 1781 1767 2027 2137 1839 1568 2067 1992 2078 2076 2084 2059 2016 2215 2724 2071 1438 1987
892 897 862 744 755 756 867 787 767 654 676 995 601 999 1008 1188 1234 1280 1454 1560 1576 1617 1430 1467 1739 1904 2015 1909 2015 2016 2061 1929 2037 1894 1823 1857 1942 2126 2290 2107 2154 2132 1437
849 981 878 849 795 808 864 833 793 783 693 989 1069 1006 957 1083 1113 1669 1739 1484 1671 1596 1599 1625 1568 1666 1932 1849 1997 1813 1930 1902 1640 2023 2102 1899 1729 1725 1020 1564 1794 1645 1613
856 894 898 852 774 751 736 942 1098 880 749 857 1028 1351 1254 909 1180 1129 1262 1202 1324 1555 1793 1993 1645 1718 2141 1714 1771 1931 1925 1878 1805 1842 1739 1667 750 481 544 1442 1575 1611 1348
777 717 580 314 369 472 450 713 778 886 1338 967 1005 1263 1396 1070 1130 1429 1303 1118 1088 1266 1309 1422 1517 2082 1894 1086 705 844 1534 1910 1957 1754 1620 862 373 300 310 275 171 70 409
757 629 350 306 268 211 230 143 139 354 467 895 1069 1316 1433 1380 1604 1398 1428 1164 1157 1232 1272 1329 1457 1692 2244 885 435 489 1803 2034 1698 1528 1429 609 400 260 246 40 23 37 23
553 251 184 196 177 155 129 88 148 193 253 290 338 409 550 1003 1298 1459 1319 1193 1063 1054 1173 1230 1593 1480 1901 597 395 399 1379 1189 596 501 447 474 353 156 49 122 134 33 10
215 56 6 26 73 86 73 70 67 45 13 5 5 7 36 266 563 790 1236 1395 1008 1135 1135 1031 1591 1402 600 336 331 361 646 227 242 297 294 217 114 62 48 57 60 35 12
0 1 0 0 0 0 41 41 36 25 3 1 0 0 0 2 12 336 257 512 958 1082 1084 1023 1110 776 190 261 238 323 159 156 191 192 106 84 71 61 34 18 6 4 11
2 1 1 0 1 5 17 38 17 18 11 4 0 0 0 0 5 10 127 180 165 116 90 86 103 127 188 181 262 269 165 135 144 111 79 45 28 18 15 10 3 6 8
1 1 1 33 26 63 79 169 31 20 5 4 0 0 0 25 0 0 45 27 25 31 64 32 86 85 124 158 154 118 110 86 87 105 91 66 38 41 1 0 0 7 4
6 2 1 2 3 31 92 146 49 58 48 9 0 0 0 27 51 32 47 15 51 83 53 95 50 58 80 98 105 109 105 134 137 93 99 78 27 0 0 20 30 14 12
1 1 2 58 13 89 202 240 98 115 145 0 0 1 0 1 150 126 24 29 54 42 73 81 53 51 73 82 100 84 104 116 117 92 68 17 0 5 14 21 8 3 0
4 14 31 20 13 88 299 96 47 123 158 0 0 6 0 0 21 10 6 57 35 44 11 23 17 18 25 47 32 27 71 70 38 28 42 16 28 18 8 14 1 0 0
21 47 35 49 118 154 228 48 123 89 39 0 5 3 4 1 1 3 18 8 9 11 17 4 6 5 5 6 10 4 4 4 53 66 44 43 25 23 4 0 0 0 0

GFSMW_con_mucape_144.txt.gz
CAPE
247 389 452 528 626 722 891 931 1149 1456 1510 1237 965 886 720 824 910 1113 1535 2087 1671 1682 2204 1148 1526 1704 1509 1931 1569 1551 1403 1201 1797 1408 829 861 1121 995 1054 1031 822 864 988
217 336 467 449 612 852 973 1143 1246 1617 1691 1363 1211 1007 945 838 881 1194 1578 1761 1872 2143 1818 1792 1217 1681 1154 1672 1667 1941 1397 1119 1460 1192 801 539 530 1205 707 648 739 798 810
231 262 388 453 492 739 1102 1140 1461 1702 1709 1427 1596 1534 1534 1719 1620 1446 1559 1787 1829 1824 2057 2116 1771 1920 1678 803 1569 1415 1751 835 1113 1678 1008 511 510 576 707 778 529 973 817
471 308 466 572 605 727 993 1194 1548 1785 1889 1661 1441 1304 948 1084 1045 1286 1326 1486 1824 1659 1571 2012 2092 2236 1545 1712 1209 1278 1737 1814 725 907 700 1168 1025 424 283 404 726 1003 703
616 610 538 786 832 693 824 1175 1664 1836 1753 1904 1986 1478 1391 1150 1409 1442 1547 2167 1897 1868 1697 2135 2239 2082 1940 1758 1713 2047 1634 1291 1345 844 674 847 712 1040 875 628 506 712 253
692 755 581 733 939 770 831 1064 1629 1926 2018 2024 2001 1859 1427 1505 1424 1623 1601 1411 1306 1581 2048 1944 2394 2174 1859 1897 1491 2285 2072 2330 1812 1366 1104 767 957 961 1070 891 638 228 214
733 800 777 586 924 963 1018 1093 1599 1955 1894 2066 1933 1896 2058 2093 2124 2545 1051 1123 1123 1216 1589 2258 2386 2044 2297 1968 1546 2215 1956 2109 1929 2016 1193 1028 976 893 686 643 463 420 280
766 846 864 917 873 1055 1229 1224 1491 2013 1945 2046 2198 2071 2153 1976 1810 1702 1281 1258 905 1333 1331 1835 2035 1984 1656 2017 2163 2563 1536 1408 1773 1913 2024 1088 788 838 902 856 748 564 382
893 843 823 882 904 987 1326 1373 1475 1912 2051 1964 2244 2223 2236 2329 1796 1637 1602 1611 1647 1185 1601 1877 1919 1734 1597 1759 1833 1575 1597 1295 1830 1554 1803 1898 878 743 874 924 1056 1096 696
1141 963 891 811 1070 1266 1334 1507 1535 1777 2026 1897 2049 2163 2170 2441 2358 1916 2030 1938 1558 1756 1832 1767 1789 1772 1710 1948 1710 1378 1605 1840 1645 1379 1565 1808 1071 959 888 1044 1101 1114 2342
1391 1214 1002 1048 1047 1310 1394 1460 1519 1714 1954 2037 1996 2052 2093 2157 2375 2098 2040 2209 2201 2144 2363 2170 2154 1901 1845 1926 2110 1679 1607 1527 1967 1984 1879 2055 2231 1758 902 1045 1007 1391 2358
1828 1638 1406 1236 1195 1273 1401 1380 1610 1528 1418 1827 2129 2071 2070 2039 1902 2106 1982 2046 2238 2192 2226 2316 2383 1868 1749 1869 1936 1480 1255 1598 1724 1676 1974 1849 1775 2203 2043 1556 1836 1737 2292
1872 1912 1729 1734 1646 1535 1586 1517 1450 1574 1515 1747 1873 1974 1826 1982 1989 2016 2157 2065 2191 2266 1896 1926 2268 2334 1700 2057 1881 1678 1596 1707 1684 1692 1691 1814 1745 2574 2689 2354 2886 2274 1903
1926 1952 1932 1907 1857 1775 1771 1793 1666 1561 1619 1471 1786 1740 1332 1387 1679 2042 2160 2238 2317 2331 2118 1921 1925 2083 2065 1819 1713 1572 1698 1660 1413 1747 1987 1640 1696 1896 1957 1869 1820 2122 2519
1767 2023 2017 1998 1943 1954 1846 1871 1739 1683 1724 1615 1571 1671 2072 1921 1897 1931 2026 2194 2223 2122 2222 2431 1959 1920 1805 1534 1731 1388 1552 1668 1701 1677 1819 1710 1340 768 874 1292 1539 1878 1889
1454 1559 1640 1471 1420 1410 1464 1646 1732 1847 1986 1889 1760 1809 1874 1937 2014 1933 1905 2023 1966 1954 2000 1970 2122 2214 1534 784 508 765 1529 1358 1724 1474 1630 1645 563 270 284 280 224 202 983
1415 1480 1382 1235 1175 691 778 1036 1068 1225 1251 1405 1742 1948 2122 2126 2099 2049 1936 2043 1907 1963 2614 2037 1920 1987 2030 935 642 671 1014 1444 1613 1656 1675 1671 830 798 894 194 30 10 5
1294 1451 1104 976 637 496 521 428 621 665 713 749 713 753 876 990 1336 1968 2166 2271 2130 2486 2628 2163 2068 2077 1952 1230 965 682 1339 1615 1511 1593 1830 1616 668 444 622 728 516 104 43
919 958 823 666 347 371 85 128 357 468 452 459 332 226 131 122 211 448 951 1414 2610 2601 2292 1906 2232 2402 2087 1163 1110 768 1561 1888 1217 980 929 573 170 276 189 405 359 44 0
644 535 296 210 90 3 55 54 176 228 285 165 58 10 11 9 10 18 87 586 1306 2090 1864 2281 2489 1743 2578 1136 856 513 1475 997 347 197 182 200 143 109 62 88 173 45 0
420 346 185 12 5 9 15 61 108 223 37 12 12 8 0 0 0 0 12 21 727 1781 1742 1780 1795 2073 1863 908 679 245 1318 392 205 113 125 105 72 50 39 47 46 26 0
41 2 6 12 4 10 84 126 219 106 49 33 14 0 0 0 0 1 15 22 431 1246 479 170 314 382 384 693 320 171 331 255 222 142 104 66 51 46 50 63 53 11 0
12 11 5 3 0 0 61 219 208 121 103 56 6 0 0 0 0 44 35 10 156 92 46 99 140 122 129 119 99 88 115 147 148 128 82 64 54 42 42 11 0 0 7
20 17 23 19 15 47 108 345 220 177 136 29 17 0 0 0 0 50 164 71 133 25 48 52 71 50 93 59 125 94 81 78 103 98 88 74 54 27 1 13 15 12 6
2 3 7 2 75 28 87 267 121 170 193 18 65 0 0 1 0 50 221 95 52 64 48 16 33 16 99 58 79 51 38 69 58 77 17 12 4 0 1 1 0 5 2
0 1 3 1 1 6 142 161 252 392 190 39 134 2 0 0 1 0 15 43 7 4 4 7 5 38 42 32 47 56 32 14 18 50 27 5 6 0 6 20 20 4 0

GFSMW_con_mucape_147.txt.gz
CAPE
206 275 361 445 485 657 775 966 959 1530 1203 1228 1021 776 586 566 494 489 1822 1163 1081 1130 1450 1174 1818 1269 1223 1963 1279 1581 1645 831 725 660 564 324 270 327 512 617 567 572 728
153 311 378 545 654 749 970 1145 1271 1980 1646 1335 1579 784 795 522 444 764 1763 1330 1096 1307 1330 2434 873 1049 997 1583 1421 1758 1690 613 848 706 326 432 120 51 609 378 417 679 495
167 260 414 437 582 1007 1161 1429 1647 2175 2031 1916 1397 1418 1145 1300 913 1936 1390 1510 1454 1489 1630 1864 1888 1952 1744 709 1682 1439 1753 998 868 1819 847 444 572 411 1210 927 427 513 449
307 275 371 497 550 851 1305 1496 1756 2430 2022 2100 2438 2490 1559 1407 1199 1631 2096 1913 1909 1772 1560 1750 1784 1969 1916 2249 1306 1254 1677 1883 1158 895 730 1480 1213 458 316 467 584 593 354
372 321 378 486 471 705 1109 1420 2262 3024 3132 2897 2969 1985 1974 1082 2514 1670 2650 2622 2882 1584 1270 1411 1768 1783 1909 2446 2322 1789 2310 1776 1080 775 513 846 830 1356 1020 434 1193 296 141
535 476 517 674 560 743 980 1368 2735 3307 2977 2561 2163 2681 2657 2371 2255 1944 2003 1746 1109 1643 2001 1643 1728 2328 2224 2026 1914 2116 2022 2272 2361 1718 1250 652 786 890 1328 992 326 103 153
889 746 796 629 900 913 989 1253 2392 2800 2493 2309 2330 2192 2349 2461 2036 2131 1699 1757 1657 1678 3075 3300 3162 1972 2541 2219 2053 2258 2651 2400 2147 2306 1310 1110 636 674 547 311 201 214 183
829 899 968 820 1062 1159 1182 1201 1890 2893 2455 2398 3094 3499 2834 1959 1812 2305 1688 1171 1253 1431 2117 2624 2029 2064 2031 2085 2162 1792 1914 2515 1652 1897 2559 1546 821 361 385 366 575 325 331
783 915 997 1153 1239 1302 1356 1602 2344 2519 2587 2237 2844 3389 3260 2840 2340 3278 2978 1635 2318 1707 1413 2301 2558 1778 2140 1824 3121 1894 2591 2123 1947 2172 2711 2086 1002 431 282 518 679 887 332
1089 1052 1209 1229 1374 1364 1438 1578 1877 2339 2496 2195 2346 2596 2625 2872 2794 2503 2871 2816 2376 2715 2039 2139 1555 1706 2101 2799 3159 2129 2533 2936 1667 1152 2900 2875 963 741 485 505 640 528 1837
1308 1224 1281 1247 1448 1519 1418 1702 1789 2489 2474 2706 2974 2966 2827 2546 2750 2580 2701 3265 2464 2535 2512 2836 2350 2412 2306 2855 2896 2483 2623 1785 2331 2215 2659 2599 2163 1556 1027 701 1821 1245 1820
1640 1566 1519 1468 1381 1628 1743 1858 1988 1971 2165 2761 3675 3072 2851 2941 2467 2787 2791 3337 3563 2897 3424 2966 2541 2433 2437 2527 2643 2119 2076 2193 1985 2058 2373 2009 1838 2690 2662 1941 3051 2127 2217
1867 2043 1978 1872 1741 1703 1874 1849 1905 2079 2091 2431 2669 2757 2491 2512 2621 2754 3249 3445 3033 3313 2324 3055 3387 2667 2553 2950 2727 2505 2480 2022 2346 2312 2434 2049 2518 2922 1971 2235 3000 2845 2201
1917 2104 2420 2604 2474 2379 2425 2354 2175 2073 2241 2207 2522 3053 2699 3070 2285 2978 3547 3184 3536 3550 3415 2912 3065 2978 2880 2713 2460 2702 2684 2281 2067 2888 1900 1855 2507 2715 2711 2717 2867 2500 2336
1764 2152 2509 2938 2882 2751 2708 2619 2497 2459 2362 2329 2317 3066 3290 2502 2736 2986 3331 3395 2990 2887 3059 3565 2950 2858 2440 1803 2842 3032 2231 2681 2355 2725 2067 2491 2460 1142 1396 2766 1976 1781 1726
1571 1939 2500 2742 2785 2787 2728 2607 2652 2608 2498 2515 2426 2478 2979 3010 2598 3123 3390 3276 3360 3354 3576 3350 3100 2995 1764 986 939 1639 2377 2850 2805 2573 2430 1957 1168 828 349 217 580 677 1673
1519 1775 1927 1900 2037 2068 2105 2252 2173 2209 2215 2298 2314 2414 2448 2378 2532 2618 2698 2872 3266 3076 3174 3185 3042 3205 3100 1392 930 730 1130 1487 2619 2682 2369 1813 1859 1181 392 209 175 95 8
1516 1779 1862 1944 1829 1521 1540 1456 1614 1635 1498 1395 1221 1119 1137 1173 1326 1800 2199 2356 3068 3191 3248 2910 3131 3203 3174 1569 1104 926 1817 1992 2325 2218 2162 2660 1760 1262 1468 481 384 329 184
1240 1710 1569 1652 1375 1349 930 893 1027 1084 919 941 743 659 538 444 452 498 621 1133 1944 2637 2700 2921 3006 3022 3200 1607 1261 1118 1766 1850 2374 1868 1753 2049 1720 759 489 990 848 300 67
1140 1131 1030 1039 984 861 578 652 763 709 794 510 211 183 92 6 5 10 15 24 370 1003 1367 2655 2695 2314 2964 1988 1282 1069 1761 1851 1743 2090 1302 1013 863 136 199 622 707 257 42
781 685 620 603 502 504 446 291 559 787 253 161 126 10 6 0 0 0 0 3 19 91 731 1832 2488 2550 2124 2308 1223 1053 2345 2655 1522 1098 541 276 159 131 117 110 449 82 22
663 512 494 416 2 38 145 307 527 247 84 73 28 4 0 0 0 0 0 0 1 20 388 1267 1715 2114 2249 1115 952 885 694 1194 1236 504 131 92 124 97 63 47 58 65 50
321 161 115 39 10 78 168 279 486 256 129 95 10 5 0 0 0 0 0 2 2 124 392 822 535 265 382 565 617 671 584 654 597 239 57 77 95 91 83 76 56 46 13
66 5 8 8 42 39 269 404 326 221 139 79 12 0 0 0 0 0 0 4 9 83 0 113 194 117 193 175 265 174 233 243 505 194 84 53 67 68 50 44 27 1 2
18 9 8 13 14 62 278 340 294 383 124 117 15 2 0 0 0 0 0 18 108 54 141 51 21 64 39 110 101 105 106 218 151 133 53 35 54 61 32 9 5 0 65
13 19 29 27 21 143 294 376 385 281 113 123 11 0 0 0 0 0 0 0 23 100 52 27 59 59 30 36 60 74 51 103 56 24 13 40 36 30 14 3 0 72 37